Location: Milton Keynes
(52.0316°N, 0.7531°W)
Time: 14:48:47
(UTC+01:00)

ATV-4 - Visible Passes

Search period start: 01 October 2022 00:00
Search period end: 11 October 2022 00:00
Orbit: 308 x 318 km, 51.6° (Epoch: 02 November)

Date Brightness Start Highest point End Pass type
(mag) Time Alt. Az. Time Alt. Az. Time Alt. Az.
01 Oct 5.2 03:23:02 40° SW 03:36:18 68° SSE 03:48:26 10° ENE visible
01 Oct 4.1 06:37:31 10° W 06:58:38 88° S 07:05:59 10° E visible
02 Oct 5.9 01:39:09 43° SSE 01:44:41 46° SE 01:59:37 10° ENE visible
02 Oct 4.6 04:50:05 25° WSW 05:08:20 83° SSE 05:17:54 10° E visible
02 Oct 6.5 23:55:42 25° ESE 23:55:42 25° ESE 00:09:15 10° ENE visible
03 Oct 5.2 03:06:40 43° SSW 03:17:47 64° SSE 03:30:06 10° ENE visible
03 Oct 4.2 06:18:30 10° W 06:40:18 89° S 06:47:48 10° E visible
04 Oct 5.9 01:23:40 40° SE 01:27:11 42° SE 01:42:04 10° ENE visible
04 Oct 4.7 04:34:42 29° WSW 04:50:55 80° SSE 05:00:39 10° ENE visible
04 Oct 6.5 23:41:05 21° ESE 23:41:05 21° ESE 23:51:55 10° ENE visible
05 Oct 5.3 02:52:10 45° SSW 03:01:20 60° SE 03:13:44 10° ENE visible
05 Oct 4.2 06:03:17 12° W 06:24:00 89° S 06:31:37 10° E visible
06 Oct 6.0 01:10:03 38° SE 01:11:45 38° SE 01:26:29 10° ENE visible
06 Oct 4.7 04:21:13 32° SW 04:35:33 77° SSE 04:45:24 10° ENE visible
06 Oct 6.6 23:28:20 17° ESE 23:28:20 17° ESE 23:36:22 10° E visible
07 Oct 5.3 02:39:33 46° S 02:46:56 56° SE 02:59:24 10° ENE visible
07 Oct 4.2 05:50:47 15° W 06:09:43 88° S 06:17:25 10° E visible
08 Oct 6.1 00:58:18 35° SE 00:58:24 35° SE 01:12:52 10° ENE visible
08 Oct 4.7 04:09:36 35° SW 04:22:14 74° SSE 04:32:08 10° ENE visible
08 Oct 6.6 23:17:28 14° E 23:17:28 14° E 23:22:34 10° E visible
09 Oct 5.4 02:28:49 46° S 02:34:36 53° SE 02:47:02 10° ENE visible
09 Oct 4.2 05:40:11 18° WSW 05:57:29 87° S 06:05:14 10° E visible
10 Oct 6.1 00:48:27 32° ESE 00:48:27 32° ESE 01:01:15 10° ENE visible
10 Oct 4.7 03:59:52 38° SW 04:10:59 72° SSE 04:20:54 10° ENE visible
10 Oct 6.6 23:08:30 11° E 23:08:30 11° E 23:10:23 10° E visible
